Location: Shepherdstown, WV
(39.4326°N, 77.8042°W)
Time: 18:45:12
(UTC-04:00)

Vanguard 1 Rocket - Pass Details

Date: 10 August 2021
Orbit: 650 x 4226 km, 34.3° (Epoch: 19 September)

Event Time Altitude Azimuth Distance (km) Brightness Sun altitude
Rises 11:00:23 0° 262° (W) 8,452 12.0 51.8°
Reaches altitude 10° 11:06:33 10° 261° (W) 7,282 11.8 52.8°
Maximum altitude 11:29:59 74° 182° (S) 2,964 11.4 56.5°
Drops below altitude 10° 11:42:29 10° 100° (E) 4,233 11.4 58.3°
Sets 11:45:03 0° 99° (E) 4,891 11.5 58.7°
